Regional Weather Roundup
Issued by NWS Sioux Falls, SD

Home | Current Version | Previous Version | Text Only | Print | Product List | Glossary On
Versions: 1 2 3 4 5 6 7 8 9 10 11 12 13 14 15 16 17 18 19 20 21 22 23 24 25 26 27 28 29 30 31 32 33 34 35 36 37 38 39 40 41 42 43 44 45 46 47 48 49 50
000
ASUS43 KFSD 250610
RWRFSD

WEATHER ROUNDUP FOR SE SOUTH DAKOTA/SW MINNESOTA/NW IOWA
NATIONAL WEATHER SERVICE SIOUX FALLS SD
100 AM CDT SAT OCT 25 2014

NOTE: "FAIR" INDICATES FEW OR NO CLOUDS BELOW 12,000 FEET WITH NO
SIGNIFICANT WEATHER AND OR OBSTRUCTIONS TO VISIBILITY.


SDZ038>040-050-052>070-250700-
SOUTHEAST SOUTH DAKOTA

CITY           SKY/WX    TMP DP  RH WIND       PRES   REMARKS
CHAMBERLAIN    CLOUDY    56  38  51 N6        30.07R
6HR MIN TEMP:  44; 6HR MAX TEMP:  67;

HURON          MOCLDY    51  39  63 CALM      30.05R
6HR MIN TEMP:  49; 6HR MAX TEMP:  60;

MADISON        FAIR      54  39  58 N8        30.02S
MITCHELL       MOCLDY    50  39  66 NW8       30.05R
6HR MIN TEMP:  50; 6HR MAX TEMP:  65;

SIOUX FALLS    PTCLDY    52  45  77 CALM      30.01S
6HR MIN TEMP:  49; 6HR MAX TEMP:  61;

WINNER         FAIR      49  33  54 W6        30.08R
YANKTON        CLEAR     48  43  81 CALM      30.01F
$$

MNZ071-072-080-081-089-090-097-098-250700-
SOUTHWEST MINNESOTA

CITY           SKY/WX    TMP DP  RH WIND       PRES   REMARKS
FAIRMONT       CLEAR     57   1  10 NW13      29.98R
JACKSON        PTCLDY    55  41  58 W8        30.00S
LUVERNE        PTCLDY    54  43  66 CALM      30.02R
MARSHALL       PTCLDY    55  39  54 NW8       29.99R
6HR MIN TEMP:  54; 6HR MAX TEMP:  63;

MONTEVIDEO     PTCLDY    57  41  54 NW7       30.00R
PIPESTONE      PTCLDY    55  39  54 N3        30.02R
REDWOOD FALLS  MOCLDY    58  41  53 NW9       29.98R
TRACY          PTCLDY    60  41  49 NW8       30.00R
WINDOM         PTCLDY    52  41  66 W8        30.00R
WORTHINGTON    PTCLDY    57  41  54 NW7       30.03R
$$

IAZ001>003-012>014-020>022-031-032-NEZ013-014-SDZ071-250700-
NORTHWEST IOWA

CITY           SKY/WX    TMP DP  RH WIND       PRES   REMARKS
CHEROKEE       CLEAR     45  44  99 CALM      30.00F
DENISON        CLEAR     48  48 100 CALM      30.00R
ESTHERVILLE    CLEAR     51  39  63 NW9       29.99R
LE MARS        CLEAR     48  45  87 CALM      30.02R
ORANGE CITY    CLEAR     59  39  47 NW5       30.01R
SHELDON        CLEAR     46  41  81 NW3       30.01R
SIOUX CITY     CLEAR     48  43  82 W5        30.01S
6HR MIN TEMP:  46; 6HR MAX TEMP:  63;

SPENCER        CLEAR     45  41  86 W6        30.01R
6HR MIN TEMP:  45; 6HR MAX TEMP:  60;

STORM LAKE     CLEAR     54  46  76 W9        30.01F
$$

ABBREVIATIONS USED IN REMARKS
   TC - TEMPERATURE IN CELSIUS
  WCI - WIND CHILL INDEX
   HX - HEAT INDEX
  VSB - VISIBILITY




USA.gov is the U.S. government's official web portal to all federal, state and local government web resources and services.